This is the latest recevied weather packets stored in our database for station/object MB7UUE. If no packets are shown the sender has not sent any weather packets the latest 10 day(s).
| Time | Temp. | Humidity | Pressure | Rain* | Wind** | Luminosity | Snow |
|---|---|---|---|---|---|---|---|
| 1778179978 | 12.78° C | 71% | 1016 hPa | 0 mm | - | - | - |
| 1778178839 | 12.78° C | 65% | 1016.1 hPa | 0 mm | - | - | - |
| 1778177691 | 13.33° C | 65% | 1016 hPa | 0 mm | - | - | - |
| 1778177199 | 13.33° C | 65% | 1016 hPa | 0 mm | - | - | - |
| 1778176058 | 13.33° C | 65% | 1015.9 hPa | 0 mm | - | - | - |
| 1778174919 | 13.89° C | 60% | 1015.8 hPa | 0 mm | - | - | - |
| 1778173778 | 13.89° C | 60% | 1015.7 hPa | 0 mm | - | - | - |
| 1778172639 | 14.44° C | 58% | 1015.8 hPa | 0 mm | - | - | - |
| 1778171498 | 14.44° C | 58% | 1015.9 hPa | 0 mm | - | - | - |
| 1778170359 | 14.44° C | 57% | 1016 hPa | 0 mm | - | - | - |
| 1778169218 | 14.44° C | 57% | 1016 hPa | 0 mm | - | - | - |
| 1778168078 | 14.44° C | 55% | 1016 hPa | 0 mm | - | - | - |
| 1778166939 | 15° C | 55% | 1015.9 hPa | 0 mm | - | - | - |
| 1778165798 | 15° C | 55% | 1015.9 hPa | 0 mm | - | - | - |
| 1778164658 | 15° C | 55% | 1015.9 hPa | 0 mm | - | - | - |
| 1778163519 | 15° C | 54% | 1016 hPa | 0 mm | - | - | - |
| 1778162378 | 15.56° C | 53% | 1016.1 hPa | 0 mm | - | - | - |
| 1778161238 | 15.56° C | 53% | 1016.1 hPa | 0 mm | - | - | - |
| 1778160099 | 15.56° C | 55% | 1016.2 hPa | 0 mm | - | - | - |
| 1778158958 | 15° C | 59% | 1016.3 hPa | 0 mm | - | - | - |
| 1778157819 | 15° C | 59% | 1016.3 hPa | 0 mm | - | - | - |
| 1778156679 | 14.44° C | 59% | 1016.4 hPa | 0 mm | - | - | - |
| 1778155538 | 13.89° C | 58% | 1016.4 hPa | 0 mm | - | - | - |
| 1778154399 | 13.89° C | 59% | 1016.4 hPa | 0 mm | - | - | - |
| 1778153258 | 13.89° C | 62% | 1016.5 hPa | 0 mm | - | - | - |
* Rain latest hour (hover to see other rain measurements)
** Current wind speed in m/s (hover to see current wind gust speed)